Regional Weather Roundup
Issued by NWS

Home | Current Version | Previous Version | Text Only | Print | Product List | Glossary On
Versions: 1 2 3 4 5 6 7 8 9 10 11 12 13 14 15 16 17 18 19 20 21 22 23 24 25 26 27 28 29 30 31 32 33 34 35 36 37 38 39 40 41 42 43 44 45 46 47 48 49 50
000
ASUS44 KMEG 030310
RWRTN
TENNESSEE HOURLY STATE WEATHER ROUNDUP
NATIONAL WEATHER SERVICE MEMPHIS TN
900 PM CST MON MAR 02 2015

TNZ002-004-019-021-049-052-054-088>092-030400-
WEST TENNESSEE

CITY           SKY/WX    TMP DP  RH WIND       PRES   REMARKS
MEMPHIS INTL   CLOUDY    42  37  82 E5        30.25F
NWS MEMPHIS      N/A     42 N/A N/A MISG        N/A
JACKSON        CLOUDY    45  32  60 CALM      30.25F
DYERSBURG      CLOUDY    37  18  44 E5        30.28S WCI  34
UNION CITY     PTCLDY    36  25  64 CALM      30.25F
PARIS          MOCLDY    37  25  60 E6        30.26F WCI  33
LEXINGTON      CLOUDY    45  30  57 E3        30.26S
SAVANNAH       CLOUDY    45  39  81 CALM      30.27S
$$

TNZ008-025-027-028-033-062-065-066-030400-
NORTH MIDDLE TENNESSEE

CITY           SKY/WX    TMP DP  RH WIND       PRES   REMARKS
NASHVILLE      CLOUDY    46  30  53 E5        30.29F
CLARKSVILLE    CLOUDY    40  28  62 E6        30.28F
SMYRNA         CLOUDY    46  32  58 CALM      30.31S
COOKEVILLE       N/A     41  34  75 CALM      30.27F
CROSSVILLE     CLOUDY    41  29  62 E6        30.26F
$$

TNZ061-075-076-078-094-096-097-030400-
SOUTH MIDDLE TENNESSEE

CITY           SKY/WX    TMP DP  RH WIND       PRES   REMARKS
FAYETTEVILLE   CLOUDY    41  36  81 CALM        N/A
TULLAHOMA      CLOUDY    43  36  75 CALM      30.27F
WINCHESTER     CLOUDY    43  37  81 CALM      30.27F
MCMINNVILLE    CLOUDY    43  36  75 CALM      30.27F
COLUMBIA         N/A     45  37  76 E3        30.26S
SHELBYVILLE    CLOUDY    45  39  81 CALM      30.28F
$$

TNZ017-018-042-046-047-030400-
NORTHEAST TENNESSEE

CITY           SKY/WX    TMP DP  RH WIND       PRES   REMARKS
TRI CITIES     MOCLDY    34  29  82 CALM      30.31F
ELIZABETHTON   CLEAR     34  28  80 CALM      30.31F
$$

TNZ012-013-036-069-073-074-030400-
CENTRAL EAST TENNESSEE

CITY           SKY/WX    TMP DP  RH WIND       PRES   REMARKS
KNOXVILLE      CLOUDY    41  37  86 N6        30.30F
OAK RIDGE      MOCLDY    41  31  67 NE3       30.31F
GATLINBURG     CLEAR     36  36 100 CALM      30.29F
MORRISTOWN     CLEAR     39  36  87 CALM      30.30F
$$

TNZ083-085-099-030400-
SOUTHEAST TENNESSEE

CITY           SKY/WX    TMP DP  RH WIND       PRES   REMARKS
CHATTANOOGA    CLOUDY    48  36  63 NE6       30.29F
$$

SKY/WX REPORTED AS FAIR MEANS FEW OR NO CLOUDS BELOW
12 THOUSAND FEET.




USA.gov is the U.S. government's official web portal to all federal, state and local government web resources and services.